Tracking 21679 objects as of 30-Oct-2020
HD Live streaming from Space Station
objects crossing your sky now

ST5-B

Track ST5-B now!
10-day predictions
ST5-B is classified as:


NORAD ID: 28981
Int'l Code: 2006-008B
Perigee: 271.1 km
Apogee: 2,634.5 km
Inclination: 105.5 °
Period: 114.8 minutes
Semi major axis: 7823 km
RCS: 0.3032 m2 (medium)
Launch date: March 22, 2006
Source: United States (US)
Launch site: Pegasus launched from Western Range Air Space (WRAS)
aabbcc
Your satellite tracking list
Your tracking list is empty




NASA's NSSDC Master Catalog

Two Line Element Set (TLE):
1 28981U 06008B   20304.10993757 +.00019582 +33705-5 +38608-3 0  9998
2 28981 105.4854 098.2085 1510385 002.5615 358.2199 12.54520892610801
Source of the keplerian elements: AFSPC